<?xml version="1.0" encoding="UTF-8" standalone="no" ?>
<gpx xmlns="http://www.topografix.com/GPX/1/1" xmlns:xsi="http://www.w3.org/2001/XMLSchema-instance" xsi:schemaLocation="http://www.topografix.com/GPX/1/1 http://www.topografix.com/GPX/1/1/gpx.xsd" version="1.1" creator="VisuGPX - https://www.visugpx.com">
  <metadata>
    <name>ROYAN_SIXTE_IPHONE_2020_10_14</name>
  </metadata>
  <trk>
    <name><![CDATA[ROYAN_SIXTE_IPHONE_2020_10_14]]></name>
    <extensions>
      <line xmlns="http://www.topografix.com/GPX/gpx_style/0/2">
        <width>4</width>
      </line>
    </extensions>
    <trkseg>
      <trkpt lat="45.62152" lon="-1.02413">
        <ele>1.8</ele>
        <time>2020-10-14T13:20:00.001Z</time>
      </trkpt>
      <trkpt lat="45.62152" lon="-1.02412">
        <ele>-1.7</ele>
        <time>2020-10-14T13:20:03.579Z</time>
      </trkpt>
      <trkpt lat="45.62156" lon="-1.02403">
        <ele>-0.9</ele>
        <time>2020-10-14T13:20:11.217Z</time>
      </trkpt>
      <trkpt lat="45.62159" lon="-1.02395">
        <ele>-0.7</ele>
        <time>2020-10-14T13:20:18.479Z</time>
      </trkpt>
      <trkpt lat="45.62162" lon="-1.02387">
        <ele>-0.4</ele>
        <time>2020-10-14T13:20:25.447Z</time>
      </trkpt>
      <trkpt lat="45.62161" lon="-1.02376">
        <ele>-1.1</ele>
        <time>2020-10-14T13:20:34.137Z</time>
      </trkpt>
      <trkpt lat="45.62163" lon="-1.02366">
        <ele>-1</ele>
        <time>2020-10-14T13:20:42.250Z</time>
      </trkpt>
      <trkpt lat="45.62165" lon="-1.02357">
        <ele>-1.2</ele>
        <time>2020-10-14T13:20:49.359Z</time>
      </trkpt>
      <trkpt lat="45.62166" lon="-1.02348">
        <ele>-1</ele>
        <time>2020-10-14T13:20:56.310Z</time>
      </trkpt>
      <trkpt lat="45.62166" lon="-1.02339">
        <ele>-1.6</ele>
        <time>2020-10-14T13:21:03.315Z</time>
      </trkpt>
      <trkpt lat="45.62166" lon="-1.02329">
        <ele>-0.9</ele>
        <time>2020-10-14T13:21:11.301Z</time>
      </trkpt>
      <trkpt lat="45.62165" lon="-1.02319">
        <ele>-0.5</ele>
        <time>2020-10-14T13:21:18.997Z</time>
      </trkpt>
      <trkpt lat="45.62165" lon="-1.02308">
        <ele>-0.7</ele>
        <time>2020-10-14T13:21:27.022Z</time>
      </trkpt>
      <trkpt lat="45.62163" lon="-1.02299">
        <ele>-0.7</ele>
        <time>2020-10-14T13:21:34.714Z</time>
      </trkpt>
      <trkpt lat="45.62162" lon="-1.0229">
        <ele>-0.5</ele>
        <time>2020-10-14T13:21:41.816Z</time>
      </trkpt>
      <trkpt lat="45.62161" lon="-1.02279">
        <ele>-0.5</ele>
        <time>2020-10-14T13:21:49.921Z</time>
      </trkpt>
      <trkpt lat="45.6216" lon="-1.0227">
        <ele>-0.5</ele>
        <time>2020-10-14T13:21:57.117Z</time>
      </trkpt>
      <trkpt lat="45.62161" lon="-1.02261">
        <ele>-0.6</ele>
        <time>2020-10-14T13:22:04.069Z</time>
      </trkpt>
      <trkpt lat="45.6216" lon="-1.02251">
        <ele>-0.6</ele>
        <time>2020-10-14T13:22:11.861Z</time>
      </trkpt>
      <trkpt lat="45.62158" lon="-1.02242">
        <ele>-0.2</ele>
        <time>2020-10-14T13:22:19.306Z</time>
      </trkpt>
      <trkpt lat="45.62156" lon="-1.02232">
        <ele>-0.1</ele>
        <time>2020-10-14T13:22:26.677Z</time>
      </trkpt>
      <trkpt lat="45.62154" lon="-1.02223">
        <ele>0.4</ele>
        <time>2020-10-14T13:22:34.404Z</time>
      </trkpt>
      <trkpt lat="45.62153" lon="-1.02213">
        <ele>0.5</ele>
        <time>2020-10-14T13:22:41.809Z</time>
      </trkpt>
      <trkpt lat="45.62152" lon="-1.02204">
        <ele>0.6</ele>
        <time>2020-10-14T13:22:48.740Z</time>
      </trkpt>
      <trkpt lat="45.62149" lon="-1.02196">
        <ele>0.9</ele>
        <time>2020-10-14T13:22:55.926Z</time>
      </trkpt>
      <trkpt lat="45.62147" lon="-1.02187">
        <ele>-0.2</ele>
        <time>2020-10-14T13:23:03.120Z</time>
      </trkpt>
      <trkpt lat="45.62144" lon="-1.02179">
        <ele>-1</ele>
        <time>2020-10-14T13:23:10.383Z</time>
      </trkpt>
      <trkpt lat="45.62141" lon="-1.02169">
        <ele>-1.4</ele>
        <time>2020-10-14T13:23:18.347Z</time>
      </trkpt>
      <trkpt lat="45.6214" lon="-1.02159">
        <ele>-1.3</ele>
        <time>2020-10-14T13:23:26.003Z</time>
      </trkpt>
      <trkpt lat="45.6214" lon="-1.0215">
        <ele>-1.4</ele>
        <time>2020-10-14T13:23:33.212Z</time>
      </trkpt>
      <trkpt lat="45.62136" lon="-1.02142">
        <ele>-1.9</ele>
        <time>2020-10-14T13:23:40.809Z</time>
      </trkpt>
      <trkpt lat="45.62131" lon="-1.02132">
        <ele>-1.7</ele>
        <time>2020-10-14T13:23:49.213Z</time>
      </trkpt>
      <trkpt lat="45.62128" lon="-1.02125">
        <ele>-1.9</ele>
        <time>2020-10-14T13:23:56.099Z</time>
      </trkpt>
      <trkpt lat="45.62128" lon="-1.02116">
        <ele>-1.6</ele>
        <time>2020-10-14T13:24:03.237Z</time>
      </trkpt>
      <trkpt lat="45.62124" lon="-1.02108">
        <ele>-2.3</ele>
        <time>2020-10-14T13:24:10.545Z</time>
      </trkpt>
      <trkpt lat="45.6212" lon="-1.02099">
        <ele>-2.6</ele>
        <time>2020-10-14T13:24:18.630Z</time>
      </trkpt>
      <trkpt lat="45.62117" lon="-1.02091">
        <ele>-2.1</ele>
        <time>2020-10-14T13:24:25.813Z</time>
      </trkpt>
      <trkpt lat="45.62113" lon="-1.02081">
        <ele>-2.8</ele>
        <time>2020-10-14T13:24:34.189Z</time>
      </trkpt>
      <trkpt lat="45.62109" lon="-1.02073">
        <ele>-2.8</ele>
        <time>2020-10-14T13:24:42.240Z</time>
      </trkpt>
      <trkpt lat="45.62105" lon="-1.02064">
        <ele>-3</ele>
        <time>2020-10-14T13:24:49.983Z</time>
      </trkpt>
      <trkpt lat="45.62105" lon="-1.02055">
        <ele>-2.5</ele>
        <time>2020-10-14T13:24:57.303Z</time>
      </trkpt>
      <trkpt lat="45.621" lon="-1.02049">
        <ele>-1.7</ele>
        <time>2020-10-14T13:25:04.398Z</time>
      </trkpt>
      <trkpt lat="45.62094" lon="-1.02042">
        <ele>-0.7</ele>
        <time>2020-10-14T13:25:12.697Z</time>
      </trkpt>
      <trkpt lat="45.62094" lon="-1.02032">
        <ele>-2.5</ele>
        <time>2020-10-14T13:25:20.324Z</time>
      </trkpt>
      <trkpt lat="45.62092" lon="-1.02022">
        <ele>-2</ele>
        <time>2020-10-14T13:25:28.135Z</time>
      </trkpt>
      <trkpt lat="45.62088" lon="-1.02014">
        <ele>-2.3</ele>
        <time>2020-10-14T13:25:35.675Z</time>
      </trkpt>
      <trkpt lat="45.62081" lon="-1.02009">
        <ele>-1.4</ele>
        <time>2020-10-14T13:25:44.270Z</time>
      </trkpt>
      <trkpt lat="45.62077" lon="-1.02002">
        <ele>-2.1</ele>
        <time>2020-10-14T13:25:51.460Z</time>
      </trkpt>
      <trkpt lat="45.62071" lon="-1.01997">
        <ele>-1.7</ele>
        <time>2020-10-14T13:25:58.564Z</time>
      </trkpt>
      <trkpt lat="45.6207" lon="-1.01988">
        <ele>-0.9</ele>
        <time>2020-10-14T13:26:06.157Z</time>
      </trkpt>
      <trkpt lat="45.62069" lon="-1.01979">
        <ele>-2</ele>
        <time>2020-10-14T13:26:13.395Z</time>
      </trkpt>
      <trkpt lat="45.62066" lon="-1.0197">
        <ele>-2.4</ele>
        <time>2020-10-14T13:26:20.453Z</time>
      </trkpt>
      <trkpt lat="45.62063" lon="-1.01962">
        <ele>-3.5</ele>
        <time>2020-10-14T13:26:27.513Z</time>
      </trkpt>
      <trkpt lat="45.62059" lon="-1.01954">
        <ele>-4.4</ele>
        <time>2020-10-14T13:26:35.136Z</time>
      </trkpt>
      <trkpt lat="45.62054" lon="-1.01947">
        <ele>-4.1</ele>
        <time>2020-10-14T13:26:42.961Z</time>
      </trkpt>
      <trkpt lat="45.62048" lon="-1.0194">
        <ele>-4.1</ele>
        <time>2020-10-14T13:26:51.105Z</time>
      </trkpt>
      <trkpt lat="45.62041" lon="-1.01936">
        <ele>-5.6</ele>
        <time>2020-10-14T13:26:59.412Z</time>
      </trkpt>
      <trkpt lat="45.62037" lon="-1.01928">
        <ele>-4.4</ele>
        <time>2020-10-14T13:27:06.898Z</time>
      </trkpt>
      <trkpt lat="45.62032" lon="-1.01921">
        <ele>-3.9</ele>
        <time>2020-10-14T13:27:14.660Z</time>
      </trkpt>
      <trkpt lat="45.62027" lon="-1.01914">
        <ele>-4</ele>
        <time>2020-10-14T13:27:22.417Z</time>
      </trkpt>
      <trkpt lat="45.62022" lon="-1.01907">
        <ele>-4.1</ele>
        <time>2020-10-14T13:27:30.703Z</time>
      </trkpt>
      <trkpt lat="45.62016" lon="-1.019">
        <ele>-2.9</ele>
        <time>2020-10-14T13:27:38.945Z</time>
      </trkpt>
      <trkpt lat="45.62013" lon="-1.01892">
        <ele>-3.1</ele>
        <time>2020-10-14T13:27:45.952Z</time>
      </trkpt>
      <trkpt lat="45.62008" lon="-1.01885">
        <ele>-3.5</ele>
        <time>2020-10-14T13:27:53.864Z</time>
      </trkpt>
      <trkpt lat="45.62003" lon="-1.01879">
        <ele>-3.7</ele>
        <time>2020-10-14T13:28:00.830Z</time>
      </trkpt>
      <trkpt lat="45.61998" lon="-1.01872">
        <ele>-2.9</ele>
        <time>2020-10-14T13:28:08.355Z</time>
      </trkpt>
      <trkpt lat="45.61993" lon="-1.01864">
        <ele>-2.8</ele>
        <time>2020-10-14T13:28:15.841Z</time>
      </trkpt>
      <trkpt lat="45.61988" lon="-1.01858">
        <ele>-2.9</ele>
        <time>2020-10-14T13:28:24.031Z</time>
      </trkpt>
      <trkpt lat="45.61981" lon="-1.01858">
        <ele>-2.8</ele>
        <time>2020-10-14T13:28:31.016Z</time>
      </trkpt>
      <trkpt lat="45.61975" lon="-1.01856">
        <ele>-3.1</ele>
        <time>2020-10-14T13:28:38.024Z</time>
      </trkpt>
      <trkpt lat="45.6197" lon="-1.0185">
        <ele>-2.6</ele>
        <time>2020-10-14T13:28:45.287Z</time>
      </trkpt>
      <trkpt lat="45.61965" lon="-1.01843">
        <ele>-1.4</ele>
        <time>2020-10-14T13:28:52.853Z</time>
      </trkpt>
      <trkpt lat="45.61962" lon="-1.01835">
        <ele>-1.5</ele>
        <time>2020-10-14T13:29:00.131Z</time>
      </trkpt>
      <trkpt lat="45.61955" lon="-1.01831">
        <ele>-1.5</ele>
        <time>2020-10-14T13:29:08.255Z</time>
      </trkpt>
      <trkpt lat="45.61951" lon="-1.01823">
        <ele>-1.7</ele>
        <time>2020-10-14T13:29:15.587Z</time>
      </trkpt>
      <trkpt lat="45.61947" lon="-1.01815">
        <ele>-1.9</ele>
        <time>2020-10-14T13:29:23.125Z</time>
      </trkpt>
      <trkpt lat="45.61943" lon="-1.01805">
        <ele>-2</ele>
        <time>2020-10-14T13:29:31.391Z</time>
      </trkpt>
      <trkpt lat="45.61937" lon="-1.018">
        <ele>-1.4</ele>
        <time>2020-10-14T13:29:39.259Z</time>
      </trkpt>
      <trkpt lat="45.61932" lon="-1.01793">
        <ele>-1.6</ele>
        <time>2020-10-14T13:29:46.632Z</time>
      </trkpt>
      <trkpt lat="45.61926" lon="-1.01793">
        <ele>-1.2</ele>
        <time>2020-10-14T13:29:53.642Z</time>
      </trkpt>
      <trkpt lat="45.61922" lon="-1.01785">
        <ele>-1.3</ele>
        <time>2020-10-14T13:30:00.974Z</time>
      </trkpt>
      <trkpt lat="45.61916" lon="-1.0178">
        <ele>-1.5</ele>
        <time>2020-10-14T13:30:08.766Z</time>
      </trkpt>
      <trkpt lat="45.61913" lon="-1.01769">
        <ele>-1.7</ele>
        <time>2020-10-14T13:30:17.405Z</time>
      </trkpt>
      <trkpt lat="45.61907" lon="-1.01765">
        <ele>-1.7</ele>
        <time>2020-10-14T13:30:25.035Z</time>
      </trkpt>
      <trkpt lat="45.61901" lon="-1.01762">
        <ele>-1.5</ele>
        <time>2020-10-14T13:30:32.012Z</time>
      </trkpt>
      <trkpt lat="45.61897" lon="-1.01755">
        <ele>-1</ele>
        <time>2020-10-14T13:30:38.996Z</time>
      </trkpt>
      <trkpt lat="45.6189" lon="-1.01749">
        <ele>-0.6</ele>
        <time>2020-10-14T13:30:47.411Z</time>
      </trkpt>
      <trkpt lat="45.61885" lon="-1.01742">
        <ele>-0.4</ele>
        <time>2020-10-14T13:30:55.558Z</time>
      </trkpt>
      <trkpt lat="45.61878" lon="-1.01737">
        <ele>0.1</ele>
        <time>2020-10-14T13:31:03.539Z</time>
      </trkpt>
      <trkpt lat="45.61873" lon="-1.01734">
        <ele>-0.8</ele>
        <time>2020-10-14T13:31:10.503Z</time>
      </trkpt>
      <trkpt lat="45.61866" lon="-1.01731">
        <ele>-1</ele>
        <time>2020-10-14T13:31:18.044Z</time>
      </trkpt>
      <trkpt lat="45.61861" lon="-1.01724">
        <ele>-1</ele>
        <time>2020-10-14T13:31:25.277Z</time>
      </trkpt>
      <trkpt lat="45.6186" lon="-1.01716">
        <ele>-0.8</ele>
        <time>2020-10-14T13:31:32.183Z</time>
      </trkpt>
      <trkpt lat="45.61854" lon="-1.01709">
        <ele>-0.7</ele>
        <time>2020-10-14T13:31:39.934Z</time>
      </trkpt>
      <trkpt lat="45.61848" lon="-1.01706">
        <ele>-0.5</ele>
        <time>2020-10-14T13:31:47.222Z</time>
      </trkpt>
      <trkpt lat="45.61841" lon="-1.01703">
        <ele>-1.1</ele>
        <time>2020-10-14T13:31:54.815Z</time>
      </trkpt>
      <trkpt lat="45.61836" lon="-1.01696">
        <ele>-1</ele>
        <time>2020-10-14T13:32:02.058Z</time>
      </trkpt>
      <trkpt lat="45.61831" lon="-1.0169">
        <ele>-1.2</ele>
        <time>2020-10-14T13:32:09.574Z</time>
      </trkpt>
      <trkpt lat="45.61826" lon="-1.01684">
        <ele>-0.2</ele>
        <time>2020-10-14T13:32:16.856Z</time>
      </trkpt>
      <trkpt lat="45.6182" lon="-1.01679">
        <ele>0.2</ele>
        <time>2020-10-14T13:32:24.155Z</time>
      </trkpt>
      <trkpt lat="45.61816" lon="-1.01672">
        <ele>-0.6</ele>
        <time>2020-10-14T13:32:31.504Z</time>
      </trkpt>
      <trkpt lat="45.6181" lon="-1.01667">
        <ele>-0.9</ele>
        <time>2020-10-14T13:32:39.010Z</time>
      </trkpt>
      <trkpt lat="45.61804" lon="-1.01665">
        <ele>-0.7</ele>
        <time>2020-10-14T13:32:45.909Z</time>
      </trkpt>
      <trkpt lat="45.61799" lon="-1.01659">
        <ele>-0.4</ele>
        <time>2020-10-14T13:32:53.032Z</time>
      </trkpt>
      <trkpt lat="45.61795" lon="-1.01652">
        <ele>1.3</ele>
        <time>2020-10-14T13:33:00.122Z</time>
      </trkpt>
      <trkpt lat="45.61791" lon="-1.01643">
        <ele>-0.1</ele>
        <time>2020-10-14T13:33:08.056Z</time>
      </trkpt>
      <trkpt lat="45.61785" lon="-1.01639">
        <ele>-0.5</ele>
        <time>2020-10-14T13:33:15.977Z</time>
      </trkpt>
      <trkpt lat="45.61779" lon="-1.01635">
        <ele>-0.2</ele>
        <time>2020-10-14T13:33:23.193Z</time>
      </trkpt>
      <trkpt lat="45.61773" lon="-1.01632">
        <ele>-0.4</ele>
        <time>2020-10-14T13:33:30.353Z</time>
      </trkpt>
      <trkpt lat="45.61767" lon="-1.01625">
        <ele>-0.6</ele>
        <time>2020-10-14T13:33:38.365Z</time>
      </trkpt>
      <trkpt lat="45.61762" lon="-1.0162">
        <ele>-0.7</ele>
        <time>2020-10-14T13:33:45.390Z</time>
      </trkpt>
      <trkpt lat="45.61755" lon="-1.01612">
        <ele>-0.8</ele>
        <time>2020-10-14T13:33:54.300Z</time>
      </trkpt>
      <trkpt lat="45.61749" lon="-1.0161">
        <ele>-1.3</ele>
        <time>2020-10-14T13:34:01.817Z</time>
      </trkpt>
      <trkpt lat="45.61744" lon="-1.01602">
        <ele>-1.3</ele>
        <time>2020-10-14T13:34:09.983Z</time>
      </trkpt>
      <trkpt lat="45.61739" lon="-1.01592">
        <ele>-0.7</ele>
        <time>2020-10-14T13:34:19.206Z</time>
      </trkpt>
      <trkpt lat="45.61733" lon="-1.01587">
        <ele>-0.9</ele>
        <time>2020-10-14T13:34:26.957Z</time>
      </trkpt>
      <trkpt lat="45.61727" lon="-1.01585">
        <ele>-1.8</ele>
        <time>2020-10-14T13:34:34.194Z</time>
      </trkpt>
      <trkpt lat="45.61722" lon="-1.01577">
        <ele>-1</ele>
        <time>2020-10-14T13:34:42.127Z</time>
      </trkpt>
      <trkpt lat="45.61717" lon="-1.0157">
        <ele>-0.8</ele>
        <time>2020-10-14T13:34:49.698Z</time>
      </trkpt>
      <trkpt lat="45.6171" lon="-1.0157">
        <ele>-1.1</ele>
        <time>2020-10-14T13:34:57.051Z</time>
      </trkpt>
      <trkpt lat="45.61703" lon="-1.01568">
        <ele>-1.7</ele>
        <time>2020-10-14T13:35:04.688Z</time>
      </trkpt>
      <trkpt lat="45.61699" lon="-1.01561">
        <ele>-1.6</ele>
        <time>2020-10-14T13:35:11.678Z</time>
      </trkpt>
      <trkpt lat="45.61697" lon="-1.0157">
        <ele>-0.8</ele>
        <time>2020-10-14T13:35:18.696Z</time>
      </trkpt>
      <trkpt lat="45.61691" lon="-1.01576">
        <ele>-0.5</ele>
        <time>2020-10-14T13:35:26.223Z</time>
      </trkpt>
      <trkpt lat="45.61691" lon="-1.01565">
        <ele>-0.5</ele>
        <time>2020-10-14T13:35:34.632Z</time>
      </trkpt>
      <trkpt lat="45.61692" lon="-1.01554">
        <ele>-0.4</ele>
        <time>2020-10-14T13:35:43.050Z</time>
      </trkpt>
      <trkpt lat="45.6169" lon="-1.01544">
        <ele>-0.4</ele>
        <time>2020-10-14T13:35:51.183Z</time>
      </trkpt>
      <trkpt lat="45.61683" lon="-1.01541">
        <ele>-1.3</ele>
        <time>2020-10-14T13:35:59.646Z</time>
      </trkpt>
      <trkpt lat="45.61676" lon="-1.01537">
        <ele>-1.3</ele>
        <time>2020-10-14T13:36:07.043Z</time>
      </trkpt>
      <trkpt lat="45.6167" lon="-1.0153">
        <ele>-1.2</ele>
        <time>2020-10-14T13:36:15.810Z</time>
      </trkpt>
      <trkpt lat="45.61666" lon="-1.01521">
        <ele>-0.4</ele>
        <time>2020-10-14T13:36:24.131Z</time>
      </trkpt>
      <trkpt lat="45.61661" lon="-1.01515">
        <ele>-0.1</ele>
        <time>2020-10-14T13:36:31.739Z</time>
      </trkpt>
      <trkpt lat="45.61655" lon="-1.01511">
        <ele>0.1</ele>
        <time>2020-10-14T13:36:38.980Z</time>
      </trkpt>
      <trkpt lat="45.61649" lon="-1.01505">
        <ele>-1.1</ele>
        <time>2020-10-14T13:36:47.049Z</time>
      </trkpt>
      <trkpt lat="45.61643" lon="-1.015">
        <ele>-1.4</ele>
        <time>2020-10-14T13:36:54.550Z</time>
      </trkpt>
      <trkpt lat="45.61637" lon="-1.01494">
        <ele>-1.4</ele>
        <time>2020-10-14T13:37:02.156Z</time>
      </trkpt>
      <trkpt lat="45.61631" lon="-1.01492">
        <ele>-1.8</ele>
        <time>2020-10-14T13:37:09.284Z</time>
      </trkpt>
      <trkpt lat="45.61624" lon="-1.0149">
        <ele>-2.4</ele>
        <time>2020-10-14T13:37:16.884Z</time>
      </trkpt>
      <trkpt lat="45.61618" lon="-1.01485">
        <ele>-1.5</ele>
        <time>2020-10-14T13:37:24.360Z</time>
      </trkpt>
      <trkpt lat="45.61613" lon="-1.01479">
        <ele>-2.1</ele>
        <time>2020-10-14T13:37:31.589Z</time>
      </trkpt>
      <trkpt lat="45.61606" lon="-1.01476">
        <ele>-1.9</ele>
        <time>2020-10-14T13:37:39.523Z</time>
      </trkpt>
      <trkpt lat="45.61601" lon="-1.01469">
        <ele>-2</ele>
        <time>2020-10-14T13:37:47.140Z</time>
      </trkpt>
      <trkpt lat="45.61595" lon="-1.01464">
        <ele>-2.5</ele>
        <time>2020-10-14T13:37:54.580Z</time>
      </trkpt>
      <trkpt lat="45.6159" lon="-1.01457">
        <ele>-2.4</ele>
        <time>2020-10-14T13:38:02.592Z</time>
      </trkpt>
      <trkpt lat="45.61584" lon="-1.01452">
        <ele>-2.7</ele>
        <time>2020-10-14T13:38:09.911Z</time>
      </trkpt>
      <trkpt lat="45.61579" lon="-1.01447">
        <ele>-3.2</ele>
        <time>2020-10-14T13:38:17.234Z</time>
      </trkpt>
      <trkpt lat="45.61572" lon="-1.01445">
        <ele>-3.5</ele>
        <time>2020-10-14T13:38:24.542Z</time>
      </trkpt>
      <trkpt lat="45.61567" lon="-1.01441">
        <ele>-2.9</ele>
        <time>2020-10-14T13:38:31.445Z</time>
      </trkpt>
      <trkpt lat="45.61562" lon="-1.01434">
        <ele>-3.1</ele>
        <time>2020-10-14T13:38:38.605Z</time>
      </trkpt>
      <trkpt lat="45.61557" lon="-1.01429">
        <ele>-2.9</ele>
        <time>2020-10-14T13:38:45.629Z</time>
      </trkpt>
      <trkpt lat="45.6155" lon="-1.01424">
        <ele>-3</ele>
        <time>2020-10-14T13:38:54.181Z</time>
      </trkpt>
      <trkpt lat="45.61545" lon="-1.01418">
        <ele>-2.2</ele>
        <time>2020-10-14T13:39:01.122Z</time>
      </trkpt>
      <trkpt lat="45.61541" lon="-1.01411">
        <ele>-1.5</ele>
        <time>2020-10-14T13:39:08.944Z</time>
      </trkpt>
      <trkpt lat="45.61535" lon="-1.01408">
        <ele>-1.8</ele>
        <time>2020-10-14T13:39:15.873Z</time>
      </trkpt>
      <trkpt lat="45.61528" lon="-1.01405">
        <ele>-1.7</ele>
        <time>2020-10-14T13:39:23.030Z</time>
      </trkpt>
      <trkpt lat="45.61523" lon="-1.01399">
        <ele>-1.2</ele>
        <time>2020-10-14T13:39:29.996Z</time>
      </trkpt>
      <trkpt lat="45.61517" lon="-1.01396">
        <ele>-1</ele>
        <time>2020-10-14T13:39:37.865Z</time>
      </trkpt>
      <trkpt lat="45.61514" lon="-1.01387">
        <ele>-1.4</ele>
        <time>2020-10-14T13:39:44.910Z</time>
      </trkpt>
      <trkpt lat="45.61507" lon="-1.01386">
        <ele>-1.2</ele>
        <time>2020-10-14T13:39:52.679Z</time>
      </trkpt>
      <trkpt lat="45.61502" lon="-1.01381">
        <ele>-1</ele>
        <time>2020-10-14T13:39:59.995Z</time>
      </trkpt>
      <trkpt lat="45.61495" lon="-1.01377">
        <ele>-1.3</ele>
        <time>2020-10-14T13:40:07.473Z</time>
      </trkpt>
      <trkpt lat="45.6149" lon="-1.0137">
        <ele>-2.1</ele>
        <time>2020-10-14T13:40:15.337Z</time>
      </trkpt>
      <trkpt lat="45.61485" lon="-1.01365">
        <ele>-1.2</ele>
        <time>2020-10-14T13:40:22.778Z</time>
      </trkpt>
      <trkpt lat="45.61479" lon="-1.01361">
        <ele>-2.4</ele>
        <time>2020-10-14T13:40:30.014Z</time>
      </trkpt>
      <trkpt lat="45.61473" lon="-1.01357">
        <ele>-3.5</ele>
        <time>2020-10-14T13:40:37.276Z</time>
      </trkpt>
      <trkpt lat="45.61467" lon="-1.01353">
        <ele>-3.7</ele>
        <time>2020-10-14T13:40:44.220Z</time>
      </trkpt>
      <trkpt lat="45.61461" lon="-1.01352">
        <ele>-3.6</ele>
        <time>2020-10-14T13:40:51.284Z</time>
      </trkpt>
      <trkpt lat="45.61455" lon="-1.01347">
        <ele>-3.4</ele>
        <time>2020-10-14T13:40:58.704Z</time>
      </trkpt>
      <trkpt lat="45.61451" lon="-1.01339">
        <ele>-3.3</ele>
        <time>2020-10-14T13:41:06.003Z</time>
      </trkpt>
      <trkpt lat="45.61445" lon="-1.01332">
        <ele>-3.9</ele>
        <time>2020-10-14T13:41:14.163Z</time>
      </trkpt>
      <trkpt lat="45.61439" lon="-1.01328">
        <ele>-2.8</ele>
        <time>2020-10-14T13:41:21.576Z</time>
      </trkpt>
      <trkpt lat="45.61433" lon="-1.01325">
        <ele>-3.9</ele>
        <time>2020-10-14T13:41:28.558Z</time>
      </trkpt>
      <trkpt lat="45.61427" lon="-1.01323">
        <ele>-4.2</ele>
        <time>2020-10-14T13:41:35.639Z</time>
      </trkpt>
      <trkpt lat="45.6142" lon="-1.01319">
        <ele>-4.4</ele>
        <time>2020-10-14T13:41:43.552Z</time>
      </trkpt>
      <trkpt lat="45.61415" lon="-1.01313">
        <ele>-4.3</ele>
        <time>2020-10-14T13:41:51.155Z</time>
      </trkpt>
      <trkpt lat="45.61407" lon="-1.0131">
        <ele>-3.9</ele>
        <time>2020-10-14T13:41:59.950Z</time>
      </trkpt>
      <trkpt lat="45.61402" lon="-1.01304">
        <ele>-3.5</ele>
        <time>2020-10-14T13:42:06.843Z</time>
      </trkpt>
      <trkpt lat="45.61396" lon="-1.01302">
        <ele>-4</ele>
        <time>2020-10-14T13:42:14.409Z</time>
      </trkpt>
      <trkpt lat="45.61389" lon="-1.01303">
        <ele>-4.1</ele>
        <time>2020-10-14T13:42:21.369Z</time>
      </trkpt>
      <trkpt lat="45.61384" lon="-1.01297">
        <ele>-2.5</ele>
        <time>2020-10-14T13:42:28.911Z</time>
      </trkpt>
      <trkpt lat="45.61379" lon="-1.01289">
        <ele>-2.9</ele>
        <time>2020-10-14T13:42:37.288Z</time>
      </trkpt>
      <trkpt lat="45.61374" lon="-1.01281">
        <ele>-3.2</ele>
        <time>2020-10-14T13:42:45.187Z</time>
      </trkpt>
      <trkpt lat="45.61379" lon="-1.01289">
        <ele>-5.4</ele>
        <time>2020-10-14T13:42:53.286Z</time>
      </trkpt>
      <trkpt lat="45.61385" lon="-1.0129">
        <ele>-4.4</ele>
        <time>2020-10-14T13:43:00.352Z</time>
      </trkpt>
      <trkpt lat="45.6139" lon="-1.01299">
        <ele>-2</ele>
        <time>2020-10-14T13:43:08.787Z</time>
      </trkpt>
      <trkpt lat="45.61397" lon="-1.01294">
        <ele>-2.3</ele>
        <time>2020-10-14T13:43:16.896Z</time>
      </trkpt>
      <trkpt lat="45.61402" lon="-1.013">
        <ele>-3.2</ele>
        <time>2020-10-14T13:43:23.937Z</time>
      </trkpt>
      <trkpt lat="45.61408" lon="-1.01302">
        <ele>-3.4</ele>
        <time>2020-10-14T13:43:31.131Z</time>
      </trkpt>
      <trkpt lat="45.61414" lon="-1.01306">
        <ele>-2.8</ele>
        <time>2020-10-14T13:43:38.125Z</time>
      </trkpt>
      <trkpt lat="45.61421" lon="-1.01311">
        <ele>-3.9</ele>
        <time>2020-10-14T13:43:46.105Z</time>
      </trkpt>
      <trkpt lat="45.61427" lon="-1.01315">
        <ele>-3.8</ele>
        <time>2020-10-14T13:43:53.460Z</time>
      </trkpt>
      <trkpt lat="45.61433" lon="-1.01319">
        <ele>-3.8</ele>
        <time>2020-10-14T13:44:01.198Z</time>
      </trkpt>
      <trkpt lat="45.61437" lon="-1.01326">
        <ele>-4.2</ele>
        <time>2020-10-14T13:44:08.273Z</time>
      </trkpt>
      <trkpt lat="45.61443" lon="-1.01332">
        <ele>-3.7</ele>
        <time>2020-10-14T13:44:15.448Z</time>
      </trkpt>
      <trkpt lat="45.61449" lon="-1.01336">
        <ele>-3</ele>
        <time>2020-10-14T13:44:22.819Z</time>
      </trkpt>
      <trkpt lat="45.61454" lon="-1.0134">
        <ele>-2.9</ele>
        <time>2020-10-14T13:44:29.794Z</time>
      </trkpt>
      <trkpt lat="45.61461" lon="-1.01342">
        <ele>-2.4</ele>
        <time>2020-10-14T13:44:37.597Z</time>
      </trkpt>
      <trkpt lat="45.61468" lon="-1.01347">
        <ele>-2.4</ele>
        <time>2020-10-14T13:44:45.359Z</time>
      </trkpt>
      <trkpt lat="45.61474" lon="-1.01349">
        <ele>-2.7</ele>
        <time>2020-10-14T13:44:52.636Z</time>
      </trkpt>
      <trkpt lat="45.6148" lon="-1.01353">
        <ele>-2.2</ele>
        <time>2020-10-14T13:45:00.171Z</time>
      </trkpt>
      <trkpt lat="45.61486" lon="-1.0136">
        <ele>-2.1</ele>
        <time>2020-10-14T13:45:07.607Z</time>
      </trkpt>
      <trkpt lat="45.61492" lon="-1.01363">
        <ele>-2.5</ele>
        <time>2020-10-14T13:45:15.264Z</time>
      </trkpt>
      <trkpt lat="45.61497" lon="-1.01371">
        <ele>-3.5</ele>
        <time>2020-10-14T13:45:22.839Z</time>
      </trkpt>
      <trkpt lat="45.61502" lon="-1.01377">
        <ele>-3.4</ele>
        <time>2020-10-14T13:45:30.105Z</time>
      </trkpt>
      <trkpt lat="45.61507" lon="-1.01383">
        <ele>-3</ele>
        <time>2020-10-14T13:45:37.788Z</time>
      </trkpt>
      <trkpt lat="45.61513" lon="-1.01385">
        <ele>-3.6</ele>
        <time>2020-10-14T13:45:45.012Z</time>
      </trkpt>
      <trkpt lat="45.6152" lon="-1.0139">
        <ele>-4.2</ele>
        <time>2020-10-14T13:45:52.634Z</time>
      </trkpt>
      <trkpt lat="45.61524" lon="-1.01397">
        <ele>-3.3</ele>
        <time>2020-10-14T13:45:59.691Z</time>
      </trkpt>
      <trkpt lat="45.6153" lon="-1.01399">
        <ele>-2.7</ele>
        <time>2020-10-14T13:46:06.630Z</time>
      </trkpt>
      <trkpt lat="45.61536" lon="-1.01405">
        <ele>-3.1</ele>
        <time>2020-10-14T13:46:14.286Z</time>
      </trkpt>
      <trkpt lat="45.61542" lon="-1.01409">
        <ele>-3.3</ele>
        <time>2020-10-14T13:46:21.611Z</time>
      </trkpt>
      <trkpt lat="45.61549" lon="-1.01411">
        <ele>-2.8</ele>
        <time>2020-10-14T13:46:29.577Z</time>
      </trkpt>
      <trkpt lat="45.61555" lon="-1.01416">
        <ele>-3.9</ele>
        <time>2020-10-14T13:46:37.073Z</time>
      </trkpt>
      <trkpt lat="45.61559" lon="-1.01423">
        <ele>-3.5</ele>
        <time>2020-10-14T13:46:44.320Z</time>
      </trkpt>
      <trkpt lat="45.61564" lon="-1.01427">
        <ele>-3.9</ele>
        <time>2020-10-14T13:46:51.252Z</time>
      </trkpt>
      <trkpt lat="45.6157" lon="-1.01434">
        <ele>-3.4</ele>
        <time>2020-10-14T13:46:58.982Z</time>
      </trkpt>
      <trkpt lat="45.61576" lon="-1.01438">
        <ele>-3.2</ele>
        <time>2020-10-14T13:47:06.966Z</time>
      </trkpt>
      <trkpt lat="45.61582" lon="-1.01443">
        <ele>-2.8</ele>
        <time>2020-10-14T13:47:14.196Z</time>
      </trkpt>
      <trkpt lat="45.61588" lon="-1.01448">
        <ele>-2.9</ele>
        <time>2020-10-14T13:47:21.597Z</time>
      </trkpt>
      <trkpt lat="45.61594" lon="-1.01454">
        <ele>-3</ele>
        <time>2020-10-14T13:47:29.247Z</time>
      </trkpt>
      <trkpt lat="45.61599" lon="-1.01461">
        <ele>-3.1</ele>
        <time>2020-10-14T13:47:36.882Z</time>
      </trkpt>
      <trkpt lat="45.61604" lon="-1.01466">
        <ele>-3.5</ele>
        <time>2020-10-14T13:47:43.959Z</time>
      </trkpt>
      <trkpt lat="45.61611" lon="-1.01467">
        <ele>-1.7</ele>
        <time>2020-10-14T13:47:51.397Z</time>
      </trkpt>
      <trkpt lat="45.61617" lon="-1.01469">
        <ele>-3</ele>
        <time>2020-10-14T13:47:58.747Z</time>
      </trkpt>
      <trkpt lat="45.61622" lon="-1.01475">
        <ele>-3.5</ele>
        <time>2020-10-14T13:48:06.182Z</time>
      </trkpt>
      <trkpt lat="45.61627" lon="-1.01482">
        <ele>-2.9</ele>
        <time>2020-10-14T13:48:13.241Z</time>
      </trkpt>
      <trkpt lat="45.61633" lon="-1.01487">
        <ele>-2.6</ele>
        <time>2020-10-14T13:48:21.215Z</time>
      </trkpt>
      <trkpt lat="45.61639" lon="-1.01491">
        <ele>-2.4</ele>
        <time>2020-10-14T13:48:28.524Z</time>
      </trkpt>
      <trkpt lat="45.61645" lon="-1.01496">
        <ele>-2.5</ele>
        <time>2020-10-14T13:48:36.194Z</time>
      </trkpt>
      <trkpt lat="45.61652" lon="-1.01497">
        <ele>-2.3</ele>
        <time>2020-10-14T13:48:43.320Z</time>
      </trkpt>
      <trkpt lat="45.61657" lon="-1.01503">
        <ele>-2.6</ele>
        <time>2020-10-14T13:48:50.541Z</time>
      </trkpt>
      <trkpt lat="45.61658" lon="-1.01512">
        <ele>-2.1</ele>
        <time>2020-10-14T13:48:58.038Z</time>
      </trkpt>
      <trkpt lat="45.61663" lon="-1.01518">
        <ele>-1.5</ele>
        <time>2020-10-14T13:49:05.011Z</time>
      </trkpt>
      <trkpt lat="45.61669" lon="-1.01518">
        <ele>-2.2</ele>
        <time>2020-10-14T13:49:12.045Z</time>
      </trkpt>
      <trkpt lat="45.61673" lon="-1.01526">
        <ele>-3.6</ele>
        <time>2020-10-14T13:49:19.379Z</time>
      </trkpt>
      <trkpt lat="45.61678" lon="-1.01534">
        <ele>-3.9</ele>
        <time>2020-10-14T13:49:27.345Z</time>
      </trkpt>
      <trkpt lat="45.61683" lon="-1.01539">
        <ele>-3.8</ele>
        <time>2020-10-14T13:49:34.324Z</time>
      </trkpt>
      <trkpt lat="45.61689" lon="-1.01546">
        <ele>-3.9</ele>
        <time>2020-10-14T13:49:42.287Z</time>
      </trkpt>
      <trkpt lat="45.61696" lon="-1.01548">
        <ele>-3.2</ele>
        <time>2020-10-14T13:49:50.268Z</time>
      </trkpt>
      <trkpt lat="45.617" lon="-1.01555">
        <ele>-3.1</ele>
        <time>2020-10-14T13:49:57.554Z</time>
      </trkpt>
      <trkpt lat="45.61707" lon="-1.01558">
        <ele>-2.3</ele>
        <time>2020-10-14T13:50:04.579Z</time>
      </trkpt>
      <trkpt lat="45.61714" lon="-1.0156">
        <ele>-2.8</ele>
        <time>2020-10-14T13:50:12.374Z</time>
      </trkpt>
      <trkpt lat="45.61716" lon="-1.01568">
        <ele>-2.3</ele>
        <time>2020-10-14T13:50:19.433Z</time>
      </trkpt>
      <trkpt lat="45.61723" lon="-1.01571">
        <ele>-2.5</ele>
        <time>2020-10-14T13:50:26.760Z</time>
      </trkpt>
      <trkpt lat="45.61729" lon="-1.01576">
        <ele>-1.3</ele>
        <time>2020-10-14T13:50:35.008Z</time>
      </trkpt>
      <trkpt lat="45.61735" lon="-1.01582">
        <ele>-1.3</ele>
        <time>2020-10-14T13:50:42.623Z</time>
      </trkpt>
      <trkpt lat="45.6174" lon="-1.01587">
        <ele>-1.7</ele>
        <time>2020-10-14T13:50:49.571Z</time>
      </trkpt>
      <trkpt lat="45.61741" lon="-1.01597">
        <ele>-2</ele>
        <time>2020-10-14T13:50:57.230Z</time>
      </trkpt>
      <trkpt lat="45.61745" lon="-1.01606">
        <ele>-1.3</ele>
        <time>2020-10-14T13:51:04.627Z</time>
      </trkpt>
      <trkpt lat="45.61751" lon="-1.01609">
        <ele>-0.2</ele>
        <time>2020-10-14T13:51:11.883Z</time>
      </trkpt>
      <trkpt lat="45.61757" lon="-1.01611">
        <ele>-0.3</ele>
        <time>2020-10-14T13:51:19.151Z</time>
      </trkpt>
      <trkpt lat="45.61764" lon="-1.01615">
        <ele>-1.3</ele>
        <time>2020-10-14T13:51:27.327Z</time>
      </trkpt>
      <trkpt lat="45.6177" lon="-1.01619">
        <ele>-2</ele>
        <time>2020-10-14T13:51:34.214Z</time>
      </trkpt>
      <trkpt lat="45.61775" lon="-1.01625">
        <ele>-2</ele>
        <time>2020-10-14T13:51:41.286Z</time>
      </trkpt>
      <trkpt lat="45.6178" lon="-1.01631">
        <ele>-1.2</ele>
        <time>2020-10-14T13:51:49.033Z</time>
      </trkpt>
      <trkpt lat="45.61786" lon="-1.01634">
        <ele>-1.7</ele>
        <time>2020-10-14T13:51:56.008Z</time>
      </trkpt>
      <trkpt lat="45.61791" lon="-1.01639">
        <ele>-2.2</ele>
        <time>2020-10-14T13:52:03.064Z</time>
      </trkpt>
      <trkpt lat="45.61796" lon="-1.01646">
        <ele>-2.1</ele>
        <time>2020-10-14T13:52:10.102Z</time>
      </trkpt>
      <trkpt lat="45.61802" lon="-1.01651">
        <ele>-2</ele>
        <time>2020-10-14T13:52:17.346Z</time>
      </trkpt>
      <trkpt lat="45.61807" lon="-1.01657">
        <ele>-2.1</ele>
        <time>2020-10-14T13:52:24.680Z</time>
      </trkpt>
      <trkpt lat="45.61813" lon="-1.01662">
        <ele>-2.3</ele>
        <time>2020-10-14T13:52:31.956Z</time>
      </trkpt>
      <trkpt lat="45.61818" lon="-1.01667">
        <ele>-2.5</ele>
        <time>2020-10-14T13:52:39.040Z</time>
      </trkpt>
      <trkpt lat="45.61823" lon="-1.01673">
        <ele>-1.7</ele>
        <time>2020-10-14T13:52:46.429Z</time>
      </trkpt>
      <trkpt lat="45.61829" lon="-1.0168">
        <ele>-2.1</ele>
        <time>2020-10-14T13:52:54.516Z</time>
      </trkpt>
      <trkpt lat="45.61835" lon="-1.01681">
        <ele>-1.9</ele>
        <time>2020-10-14T13:53:01.498Z</time>
      </trkpt>
      <trkpt lat="45.6184" lon="-1.01688">
        <ele>-1.8</ele>
        <time>2020-10-14T13:53:09.177Z</time>
      </trkpt>
      <trkpt lat="45.61844" lon="-1.01696">
        <ele>-2.2</ele>
        <time>2020-10-14T13:53:16.269Z</time>
      </trkpt>
      <trkpt lat="45.61849" lon="-1.01703">
        <ele>-2.2</ele>
        <time>2020-10-14T13:53:23.884Z</time>
      </trkpt>
      <trkpt lat="45.61854" lon="-1.01709">
        <ele>-0.8</ele>
        <time>2020-10-14T13:53:31.568Z</time>
      </trkpt>
      <trkpt lat="45.6186" lon="-1.01715">
        <ele>-1.9</ele>
        <time>2020-10-14T13:53:39.119Z</time>
      </trkpt>
      <trkpt lat="45.61864" lon="-1.01723">
        <ele>-2.7</ele>
        <time>2020-10-14T13:53:46.692Z</time>
      </trkpt>
      <trkpt lat="45.61869" lon="-1.0173">
        <ele>-2.3</ele>
        <time>2020-10-14T13:53:53.968Z</time>
      </trkpt>
      <trkpt lat="45.61873" lon="-1.01736">
        <ele>-1.7</ele>
        <time>2020-10-14T13:54:00.959Z</time>
      </trkpt>
      <trkpt lat="45.6188" lon="-1.01739">
        <ele>-0.8</ele>
        <time>2020-10-14T13:54:08.989Z</time>
      </trkpt>
      <trkpt lat="45.61887" lon="-1.01739">
        <ele>-1.3</ele>
        <time>2020-10-14T13:54:16.341Z</time>
      </trkpt>
      <trkpt lat="45.6189" lon="-1.01747">
        <ele>-1.5</ele>
        <time>2020-10-14T13:54:23.376Z</time>
      </trkpt>
      <trkpt lat="45.61893" lon="-1.01755">
        <ele>-0.9</ele>
        <time>2020-10-14T13:54:30.565Z</time>
      </trkpt>
      <trkpt lat="45.619" lon="-1.0176">
        <ele>-1.3</ele>
        <time>2020-10-14T13:54:38.503Z</time>
      </trkpt>
      <trkpt lat="45.61902" lon="-1.01769">
        <ele>-1.4</ele>
        <time>2020-10-14T13:54:45.902Z</time>
      </trkpt>
      <trkpt lat="45.61907" lon="-1.01774">
        <ele>-0.7</ele>
        <time>2020-10-14T13:54:52.888Z</time>
      </trkpt>
      <trkpt lat="45.61913" lon="-1.01778">
        <ele>-0.4</ele>
        <time>2020-10-14T13:55:00.031Z</time>
      </trkpt>
      <trkpt lat="45.61919" lon="-1.01781">
        <ele>-1.5</ele>
        <time>2020-10-14T13:55:07.089Z</time>
      </trkpt>
      <trkpt lat="45.61925" lon="-1.01787">
        <ele>-2.2</ele>
        <time>2020-10-14T13:55:14.325Z</time>
      </trkpt>
      <trkpt lat="45.6193" lon="-1.01792">
        <ele>-1.6</ele>
        <time>2020-10-14T13:55:21.236Z</time>
      </trkpt>
      <trkpt lat="45.61937" lon="-1.01794">
        <ele>-1.9</ele>
        <time>2020-10-14T13:55:28.930Z</time>
      </trkpt>
      <trkpt lat="45.61943" lon="-1.01798">
        <ele>-2.2</ele>
        <time>2020-10-14T13:55:36.109Z</time>
      </trkpt>
      <trkpt lat="45.61947" lon="-1.01804">
        <ele>-3.3</ele>
        <time>2020-10-14T13:55:43.229Z</time>
      </trkpt>
      <trkpt lat="45.61952" lon="-1.0181">
        <ele>-4.1</ele>
        <time>2020-10-14T13:55:50.284Z</time>
      </trkpt>
      <trkpt lat="45.61956" lon="-1.01818">
        <ele>-3.3</ele>
        <time>2020-10-14T13:55:57.520Z</time>
      </trkpt>
      <trkpt lat="45.61962" lon="-1.0182">
        <ele>-3.4</ele>
        <time>2020-10-14T13:56:04.455Z</time>
      </trkpt>
      <trkpt lat="45.61967" lon="-1.01828">
        <ele>-3.5</ele>
        <time>2020-10-14T13:56:12.424Z</time>
      </trkpt>
      <trkpt lat="45.61972" lon="-1.01822">
        <ele>-2.9</ele>
        <time>2020-10-14T13:56:19.401Z</time>
      </trkpt>
      <trkpt lat="45.61975" lon="-1.0183">
        <ele>-3.2</ele>
        <time>2020-10-14T13:56:26.383Z</time>
      </trkpt>
      <trkpt lat="45.61977" lon="-1.01839">
        <ele>-3.1</ele>
        <time>2020-10-14T13:56:33.761Z</time>
      </trkpt>
      <trkpt lat="45.61974" lon="-1.01847">
        <ele>-3</ele>
        <time>2020-10-14T13:56:40.684Z</time>
      </trkpt>
      <trkpt lat="45.61973" lon="-1.01859">
        <ele>-3</ele>
        <time>2020-10-14T13:56:49.624Z</time>
      </trkpt>
      <trkpt lat="45.6197" lon="-1.01849">
        <ele>-2.7</ele>
        <time>2020-10-14T13:56:57.530Z</time>
      </trkpt>
      <trkpt lat="45.61975" lon="-1.01843">
        <ele>-2.6</ele>
        <time>2020-10-14T13:57:04.621Z</time>
      </trkpt>
      <trkpt lat="45.61978" lon="-1.01854">
        <ele>-2.5</ele>
        <time>2020-10-14T13:57:14.186Z</time>
      </trkpt>
      <trkpt lat="45.61973" lon="-1.01861">
        <ele>-2.5</ele>
        <time>2020-10-14T13:57:22.375Z</time>
      </trkpt>
      <trkpt lat="45.61976" lon="-1.01872">
        <ele>-1.3</ele>
        <time>2020-10-14T13:57:30.804Z</time>
      </trkpt>
      <trkpt lat="45.61982" lon="-1.01876">
        <ele>-2.4</ele>
        <time>2020-10-14T13:57:38.759Z</time>
      </trkpt>
      <trkpt lat="45.61989" lon="-1.01878">
        <ele>-1.7</ele>
        <time>2020-10-14T13:57:46.019Z</time>
      </trkpt>
      <trkpt lat="45.61996" lon="-1.0188">
        <ele>-2.3</ele>
        <time>2020-10-14T13:57:53.865Z</time>
      </trkpt>
      <trkpt lat="45.62002" lon="-1.01884">
        <ele>-2.8</ele>
        <time>2020-10-14T13:58:01.626Z</time>
      </trkpt>
      <trkpt lat="45.62008" lon="-1.01889">
        <ele>-2.1</ele>
        <time>2020-10-14T13:58:09.179Z</time>
      </trkpt>
      <trkpt lat="45.62014" lon="-1.01894">
        <ele>-1</ele>
        <time>2020-10-14T13:58:16.760Z</time>
      </trkpt>
      <trkpt lat="45.6202" lon="-1.01899">
        <ele>-1.5</ele>
        <time>2020-10-14T13:58:24.247Z</time>
      </trkpt>
      <trkpt lat="45.62024" lon="-1.01906">
        <ele>-1.5</ele>
        <time>2020-10-14T13:58:31.321Z</time>
      </trkpt>
      <trkpt lat="45.6203" lon="-1.0191">
        <ele>-2.2</ele>
        <time>2020-10-14T13:58:38.455Z</time>
      </trkpt>
      <trkpt lat="45.62036" lon="-1.01914">
        <ele>-2.5</ele>
        <time>2020-10-14T13:58:45.852Z</time>
      </trkpt>
      <trkpt lat="45.62041" lon="-1.01921">
        <ele>-2.7</ele>
        <time>2020-10-14T13:58:53.152Z</time>
      </trkpt>
      <trkpt lat="45.62044" lon="-1.01929">
        <ele>-1.8</ele>
        <time>2020-10-14T13:59:00.184Z</time>
      </trkpt>
      <trkpt lat="45.62049" lon="-1.01934">
        <ele>-2.1</ele>
        <time>2020-10-14T13:59:07.442Z</time>
      </trkpt>
      <trkpt lat="45.62055" lon="-1.01938">
        <ele>-2.7</ele>
        <time>2020-10-14T13:59:14.600Z</time>
      </trkpt>
      <trkpt lat="45.62056" lon="-1.01948">
        <ele>-3.1</ele>
        <time>2020-10-14T13:59:22.111Z</time>
      </trkpt>
      <trkpt lat="45.6206" lon="-1.01956">
        <ele>-2.3</ele>
        <time>2020-10-14T13:59:29.234Z</time>
      </trkpt>
      <trkpt lat="45.62063" lon="-1.01964">
        <ele>-2.4</ele>
        <time>2020-10-14T13:59:36.394Z</time>
      </trkpt>
      <trkpt lat="45.62068" lon="-1.01969">
        <ele>-2.5</ele>
        <time>2020-10-14T13:59:43.551Z</time>
      </trkpt>
      <trkpt lat="45.62073" lon="-1.01975">
        <ele>-2.5</ele>
        <time>2020-10-14T13:59:50.796Z</time>
      </trkpt>
      <trkpt lat="45.62077" lon="-1.01984">
        <ele>-2.4</ele>
        <time>2020-10-14T13:59:58.630Z</time>
      </trkpt>
      <trkpt lat="45.62081" lon="-1.01991">
        <ele>-2.1</ele>
        <time>2020-10-14T14:00:05.653Z</time>
      </trkpt>
      <trkpt lat="45.62086" lon="-1.01998">
        <ele>-1.9</ele>
        <time>2020-10-14T14:00:13.016Z</time>
      </trkpt>
      <trkpt lat="45.62091" lon="-1.02003">
        <ele>-2.9</ele>
        <time>2020-10-14T14:00:20.378Z</time>
      </trkpt>
      <trkpt lat="45.62094" lon="-1.02011">
        <ele>-2.4</ele>
        <time>2020-10-14T14:00:27.280Z</time>
      </trkpt>
      <trkpt lat="45.62097" lon="-1.02021">
        <ele>-1.9</ele>
        <time>2020-10-14T14:00:35.753Z</time>
      </trkpt>
      <trkpt lat="45.62101" lon="-1.02031">
        <ele>-1.9</ele>
        <time>2020-10-14T14:00:43.736Z</time>
      </trkpt>
      <trkpt lat="45.62104" lon="-1.02039">
        <ele>-1.9</ele>
        <time>2020-10-14T14:00:51.137Z</time>
      </trkpt>
      <trkpt lat="45.62109" lon="-1.02045">
        <ele>-2.2</ele>
        <time>2020-10-14T14:00:58.076Z</time>
      </trkpt>
      <trkpt lat="45.62113" lon="-1.02053">
        <ele>-1.4</ele>
        <time>2020-10-14T14:01:05.929Z</time>
      </trkpt>
      <trkpt lat="45.62113" lon="-1.02063">
        <ele>-0.8</ele>
        <time>2020-10-14T14:01:13.464Z</time>
      </trkpt>
      <trkpt lat="45.62112" lon="-1.02072">
        <ele>-0.9</ele>
        <time>2020-10-14T14:01:20.507Z</time>
      </trkpt>
      <trkpt lat="45.62113" lon="-1.02082">
        <ele>-0.8</ele>
        <time>2020-10-14T14:01:28.147Z</time>
      </trkpt>
      <trkpt lat="45.62112" lon="-1.02092">
        <ele>-0.7</ele>
        <time>2020-10-14T14:01:35.290Z</time>
      </trkpt>
      <trkpt lat="45.62117" lon="-1.02097">
        <ele>-0.7</ele>
        <time>2020-10-14T14:01:42.402Z</time>
      </trkpt>
      <trkpt lat="45.62124" lon="-1.02101">
        <ele>-0.6</ele>
        <time>2020-10-14T14:01:50.468Z</time>
      </trkpt>
      <trkpt lat="45.62131" lon="-1.02101">
        <ele>0.9</ele>
        <time>2020-10-14T14:01:58.359Z</time>
      </trkpt>
      <trkpt lat="45.62133" lon="-1.02111">
        <ele>0.3</ele>
        <time>2020-10-14T14:02:06.099Z</time>
      </trkpt>
      <trkpt lat="45.62135" lon="-1.0212">
        <ele>0.1</ele>
        <time>2020-10-14T14:02:13.540Z</time>
      </trkpt>
      <trkpt lat="45.62136" lon="-1.0213">
        <ele>-0.1</ele>
        <time>2020-10-14T14:02:21.288Z</time>
      </trkpt>
      <trkpt lat="45.62138" lon="-1.02139">
        <ele>2</ele>
        <time>2020-10-14T14:02:28.541Z</time>
      </trkpt>
      <trkpt lat="45.62139" lon="-1.02149">
        <ele>0.3</ele>
        <time>2020-10-14T14:02:36.043Z</time>
      </trkpt>
      <trkpt lat="45.62141" lon="-1.02158">
        <ele>0.5</ele>
        <time>2020-10-14T14:02:43.343Z</time>
      </trkpt>
      <trkpt lat="45.62145" lon="-1.02166">
        <ele>0.4</ele>
        <time>2020-10-14T14:02:50.739Z</time>
      </trkpt>
      <trkpt lat="45.62149" lon="-1.02175">
        <ele>0.8</ele>
        <time>2020-10-14T14:02:58.952Z</time>
      </trkpt>
      <trkpt lat="45.62152" lon="-1.02184">
        <ele>1</ele>
        <time>2020-10-14T14:03:06.095Z</time>
      </trkpt>
      <trkpt lat="45.62152" lon="-1.02193">
        <ele>0.9</ele>
        <time>2020-10-14T14:03:13.555Z</time>
      </trkpt>
      <trkpt lat="45.62156" lon="-1.02201">
        <ele>0.2</ele>
        <time>2020-10-14T14:03:20.979Z</time>
      </trkpt>
      <trkpt lat="45.62159" lon="-1.0221">
        <ele>0.1</ele>
        <time>2020-10-14T14:03:28.184Z</time>
      </trkpt>
      <trkpt lat="45.62162" lon="-1.02218">
        <ele>0.3</ele>
        <time>2020-10-14T14:03:35.596Z</time>
      </trkpt>
      <trkpt lat="45.62165" lon="-1.02227">
        <ele>2</ele>
        <time>2020-10-14T14:03:42.817Z</time>
      </trkpt>
      <trkpt lat="45.62165" lon="-1.02236">
        <ele>0.1</ele>
        <time>2020-10-14T14:03:49.778Z</time>
      </trkpt>
      <trkpt lat="45.62164" lon="-1.02248">
        <ele>2</ele>
        <time>2020-10-14T14:03:58.777Z</time>
      </trkpt>
      <trkpt lat="45.62161" lon="-1.02257">
        <ele>-0.4</ele>
        <time>2020-10-14T14:04:06.529Z</time>
      </trkpt>
      <trkpt lat="45.62163" lon="-1.02266">
        <ele>-0.6</ele>
        <time>2020-10-14T14:04:13.533Z</time>
      </trkpt>
      <trkpt lat="45.62167" lon="-1.02273">
        <ele>0.2</ele>
        <time>2020-10-14T14:04:21.112Z</time>
      </trkpt>
      <trkpt lat="45.6217" lon="-1.02282">
        <ele>-0.3</ele>
        <time>2020-10-14T14:04:28.449Z</time>
      </trkpt>
      <trkpt lat="45.62171" lon="-1.02292">
        <ele>-0.1</ele>
        <time>2020-10-14T14:04:36.576Z</time>
      </trkpt>
      <trkpt lat="45.62171" lon="-1.02302">
        <ele>0.2</ele>
        <time>2020-10-14T14:04:43.631Z</time>
      </trkpt>
      <trkpt lat="45.62172" lon="-1.02311">
        <ele>0.1</ele>
        <time>2020-10-14T14:04:51.129Z</time>
      </trkpt>
      <trkpt lat="45.62171" lon="-1.0232">
        <ele>0.1</ele>
        <time>2020-10-14T14:04:58.230Z</time>
      </trkpt>
      <trkpt lat="45.62171" lon="-1.0233">
        <ele>0.2</ele>
        <time>2020-10-14T14:05:05.637Z</time>
      </trkpt>
      <trkpt lat="45.62173" lon="-1.02341">
        <ele>-0.2</ele>
        <time>2020-10-14T14:05:13.748Z</time>
      </trkpt>
      <trkpt lat="45.62172" lon="-1.0235">
        <ele>-0.5</ele>
        <time>2020-10-14T14:05:21.136Z</time>
      </trkpt>
      <trkpt lat="45.62172" lon="-1.0236">
        <ele>-1.2</ele>
        <time>2020-10-14T14:05:28.510Z</time>
      </trkpt>
      <trkpt lat="45.6217" lon="-1.02369">
        <ele>-1.1</ele>
        <time>2020-10-14T14:05:36.107Z</time>
      </trkpt>
      <trkpt lat="45.62168" lon="-1.02378">
        <ele>-1.2</ele>
        <time>2020-10-14T14:05:43.459Z</time>
      </trkpt>
      <trkpt lat="45.62166" lon="-1.02387">
        <ele>-1.3</ele>
        <time>2020-10-14T14:05:50.356Z</time>
      </trkpt>
      <trkpt lat="45.62163" lon="-1.02397">
        <ele>-1.5</ele>
        <time>2020-10-14T14:05:58.313Z</time>
      </trkpt>
      <trkpt lat="45.62161" lon="-1.02387">
        <ele>-2</ele>
        <time>2020-10-14T14:06:06.287Z</time>
      </trkpt>
      <trkpt lat="45.62161" lon="-1.02377">
        <ele>-2.4</ele>
        <time>2020-10-14T14:06:13.527Z</time>
      </trkpt>
      <trkpt lat="45.6216" lon="-1.02366">
        <ele>-3.2</ele>
        <time>2020-10-14T14:06:22.266Z</time>
      </trkpt>
      <trkpt lat="45.62157" lon="-1.02358">
        <ele>-3.4</ele>
        <time>2020-10-14T14:06:29.291Z</time>
      </trkpt>
      <trkpt lat="45.62157" lon="-1.02349">
        <ele>-3.1</ele>
        <time>2020-10-14T14:06:36.179Z</time>
      </trkpt>
      <trkpt lat="45.62157" lon="-1.02339">
        <ele>-2.9</ele>
        <time>2020-10-14T14:06:43.803Z</time>
      </trkpt>
      <trkpt lat="45.62161" lon="-1.0233">
        <ele>-2.8</ele>
        <time>2020-10-14T14:06:51.199Z</time>
      </trkpt>
      <trkpt lat="45.62164" lon="-1.02294">
        <ele>-2.7</ele>
        <time>2020-10-14T14:07:18.762Z</time>
      </trkpt>
      <trkpt lat="45.62165" lon="-1.02314">
        <ele>-2.7</ele>
        <time>2020-10-14T14:07:33.690Z</time>
      </trkpt>
      <trkpt lat="45.62161" lon="-1.02306">
        <ele>-2</ele>
        <time>2020-10-14T14:07:41.383Z</time>
      </trkpt>
      <trkpt lat="45.62157" lon="-1.02299">
        <ele>-2.5</ele>
        <time>2020-10-14T14:07:48.543Z</time>
      </trkpt>
      <trkpt lat="45.62154" lon="-1.02289">
        <ele>-1.4</ele>
        <time>2020-10-14T14:07:56.659Z</time>
      </trkpt>
      <trkpt lat="45.62157" lon="-1.02281">
        <ele>-0.9</ele>
        <time>2020-10-14T14:08:03.730Z</time>
      </trkpt>
      <trkpt lat="45.6216" lon="-1.02272">
        <ele>-2.8</ele>
        <time>2020-10-14T14:08:11.017Z</time>
      </trkpt>
      <trkpt lat="45.62156" lon="-1.02262">
        <ele>-2.4</ele>
        <time>2020-10-14T14:08:19.496Z</time>
      </trkpt>
      <trkpt lat="45.62153" lon="-1.02252">
        <ele>-2.7</ele>
        <time>2020-10-14T14:08:27.752Z</time>
      </trkpt>
      <trkpt lat="45.62156" lon="-1.02244">
        <ele>-2.2</ele>
        <time>2020-10-14T14:08:34.801Z</time>
      </trkpt>
      <trkpt lat="45.62154" lon="-1.02235">
        <ele>-1.4</ele>
        <time>2020-10-14T14:08:42.641Z</time>
      </trkpt>
      <trkpt lat="45.62149" lon="-1.02228">
        <ele>-1.2</ele>
        <time>2020-10-14T14:08:50.194Z</time>
      </trkpt>
      <trkpt lat="45.62147" lon="-1.02218">
        <ele>-1.1</ele>
        <time>2020-10-14T14:08:58.208Z</time>
      </trkpt>
      <trkpt lat="45.62144" lon="-1.02209">
        <ele>-1</ele>
        <time>2020-10-14T14:09:05.437Z</time>
      </trkpt>
      <trkpt lat="45.62141" lon="-1.02201">
        <ele>-0.9</ele>
        <time>2020-10-14T14:09:12.480Z</time>
      </trkpt>
      <trkpt lat="45.62147" lon="-1.02206">
        <ele>-0.6</ele>
        <time>2020-10-14T14:09:20.570Z</time>
      </trkpt>
      <trkpt lat="45.62145" lon="-1.02198">
        <ele>-1</ele>
        <time>2020-10-14T14:09:27.580Z</time>
      </trkpt>
      <trkpt lat="45.62148" lon="-1.02189">
        <ele>-0.4</ele>
        <time>2020-10-14T14:09:35.036Z</time>
      </trkpt>
      <trkpt lat="45.62147" lon="-1.02179">
        <ele>-0.9</ele>
        <time>2020-10-14T14:09:42.282Z</time>
      </trkpt>
      <trkpt lat="45.62144" lon="-1.02171">
        <ele>-1.1</ele>
        <time>2020-10-14T14:09:49.210Z</time>
      </trkpt>
      <trkpt lat="45.62141" lon="-1.02162">
        <ele>-1.5</ele>
        <time>2020-10-14T14:09:56.842Z</time>
      </trkpt>
      <trkpt lat="45.62135" lon="-1.02156">
        <ele>-1.3</ele>
        <time>2020-10-14T14:10:04.447Z</time>
      </trkpt>
      <trkpt lat="45.62135" lon="-1.02146">
        <ele>-0.6</ele>
        <time>2020-10-14T14:10:12.013Z</time>
      </trkpt>
      <trkpt lat="45.62133" lon="-1.02135">
        <ele>-0.5</ele>
        <time>2020-10-14T14:10:20.621Z</time>
      </trkpt>
      <trkpt lat="45.62132" lon="-1.02125">
        <ele>0.1</ele>
        <time>2020-10-14T14:10:28.425Z</time>
      </trkpt>
      <trkpt lat="45.6213" lon="-1.02113">
        <ele>0.6</ele>
        <time>2020-10-14T14:10:37.830Z</time>
      </trkpt>
      <trkpt lat="45.62129" lon="-1.02102">
        <ele>0.8</ele>
        <time>2020-10-14T14:10:46.170Z</time>
      </trkpt>
      <trkpt lat="45.62126" lon="-1.02094">
        <ele>0.5</ele>
        <time>2020-10-14T14:10:53.294Z</time>
      </trkpt>
      <trkpt lat="45.62126" lon="-1.02104">
        <ele>-1.1</ele>
        <time>2020-10-14T14:11:00.885Z</time>
      </trkpt>
      <trkpt lat="45.62132" lon="-1.02101">
        <ele>-0.3</ele>
        <time>2020-10-14T14:11:07.931Z</time>
      </trkpt>
      <trkpt lat="45.62135" lon="-1.0211">
        <ele>-0.1</ele>
        <time>2020-10-14T14:11:15.074Z</time>
      </trkpt>
      <trkpt lat="45.62139" lon="-1.02117">
        <ele>0.1</ele>
        <time>2020-10-14T14:11:22.035Z</time>
      </trkpt>
      <trkpt lat="45.6214" lon="-1.02127">
        <ele>-0.4</ele>
        <time>2020-10-14T14:11:29.603Z</time>
      </trkpt>
      <trkpt lat="45.62143" lon="-1.02135">
        <ele>2.1</ele>
        <time>2020-10-14T14:11:36.568Z</time>
      </trkpt>
      <trkpt lat="45.62146" lon="-1.02144">
        <ele>0.1</ele>
        <time>2020-10-14T14:11:44.377Z</time>
      </trkpt>
      <trkpt lat="45.62147" lon="-1.02154">
        <ele>0.1</ele>
        <time>2020-10-14T14:11:52.033Z</time>
      </trkpt>
      <trkpt lat="45.62149" lon="-1.02163">
        <ele>-0.1</ele>
        <time>2020-10-14T14:11:58.957Z</time>
      </trkpt>
      <trkpt lat="45.62151" lon="-1.02172">
        <ele>0.5</ele>
        <time>2020-10-14T14:12:06.207Z</time>
      </trkpt>
      <trkpt lat="45.62152" lon="-1.02181">
        <ele>0.6</ele>
        <time>2020-10-14T14:12:13.588Z</time>
      </trkpt>
      <trkpt lat="45.62154" lon="-1.02191">
        <ele>0.3</ele>
        <time>2020-10-14T14:12:20.946Z</time>
      </trkpt>
      <trkpt lat="45.62154" lon="-1.02201">
        <ele>-0.1</ele>
        <time>2020-10-14T14:12:28.977Z</time>
      </trkpt>
      <trkpt lat="45.62155" lon="-1.0221">
        <ele>0.4</ele>
        <time>2020-10-14T14:12:36.215Z</time>
      </trkpt>
      <trkpt lat="45.62154" lon="-1.0222">
        <ele>0.3</ele>
        <time>2020-10-14T14:12:43.793Z</time>
      </trkpt>
      <trkpt lat="45.62156" lon="-1.02229">
        <ele>0.3</ele>
        <time>2020-10-14T14:12:50.741Z</time>
      </trkpt>
      <trkpt lat="45.62162" lon="-1.02232">
        <ele>0.6</ele>
        <time>2020-10-14T14:12:58.032Z</time>
      </trkpt>
      <trkpt lat="45.62163" lon="-1.02243">
        <ele>-0.4</ele>
        <time>2020-10-14T14:13:06.897Z</time>
      </trkpt>
      <trkpt lat="45.62163" lon="-1.02254">
        <ele>2</ele>
        <time>2020-10-14T14:13:14.952Z</time>
      </trkpt>
      <trkpt lat="45.62162" lon="-1.02264">
        <ele>0.1</ele>
        <time>2020-10-14T14:13:22.596Z</time>
      </trkpt>
      <trkpt lat="45.62166" lon="-1.02274">
        <ele>0.2</ele>
        <time>2020-10-14T14:13:30.683Z</time>
      </trkpt>
      <trkpt lat="45.62166" lon="-1.02283">
        <ele>0.1</ele>
        <time>2020-10-14T14:13:38.103Z</time>
      </trkpt>
      <trkpt lat="45.62168" lon="-1.02293">
        <ele>0.2</ele>
        <time>2020-10-14T14:13:45.642Z</time>
      </trkpt>
      <trkpt lat="45.62172" lon="-1.02302">
        <ele>0.2</ele>
        <time>2020-10-14T14:13:54.426Z</time>
      </trkpt>
      <trkpt lat="45.62176" lon="-1.0231">
        <ele>0.6</ele>
        <time>2020-10-14T14:14:01.863Z</time>
      </trkpt>
      <trkpt lat="45.62176" lon="-1.0232">
        <ele>0.7</ele>
        <time>2020-10-14T14:14:09.628Z</time>
      </trkpt>
      <trkpt lat="45.62174" lon="-1.02331">
        <ele>0.5</ele>
        <time>2020-10-14T14:14:18.411Z</time>
      </trkpt>
      <trkpt lat="45.62172" lon="-1.02341">
        <ele>1.8</ele>
        <time>2020-10-14T14:14:26.404Z</time>
      </trkpt>
      <trkpt lat="45.6217" lon="-1.0235">
        <ele>1.5</ele>
        <time>2020-10-14T14:14:33.695Z</time>
      </trkpt>
      <trkpt lat="45.62169" lon="-1.0236">
        <ele>-0.3</ele>
        <time>2020-10-14T14:14:40.915Z</time>
      </trkpt>
      <trkpt lat="45.62168" lon="-1.02369">
        <ele>0.2</ele>
        <time>2020-10-14T14:14:48.356Z</time>
      </trkpt>
      <trkpt lat="45.62168" lon="-1.02379">
        <ele>0.1</ele>
        <time>2020-10-14T14:14:55.554Z</time>
      </trkpt>
      <trkpt lat="45.62167" lon="-1.02388">
        <ele>0.2</ele>
        <time>2020-10-14T14:15:02.844Z</time>
      </trkpt>
      <trkpt lat="45.62166" lon="-1.02378">
        <ele>-2.1</ele>
        <time>2020-10-14T14:15:10.606Z</time>
      </trkpt>
      <trkpt lat="45.62167" lon="-1.02369">
        <ele>-2.9</ele>
        <time>2020-10-14T14:15:17.922Z</time>
      </trkpt>
      <trkpt lat="45.62168" lon="-1.0236">
        <ele>-2.3</ele>
        <time>2020-10-14T14:15:24.997Z</time>
      </trkpt>
      <trkpt lat="45.6217" lon="-1.02351">
        <ele>-2.1</ele>
        <time>2020-10-14T14:15:32.154Z</time>
      </trkpt>
      <trkpt lat="45.62167" lon="-1.02342">
        <ele>-2.3</ele>
        <time>2020-10-14T14:15:39.190Z</time>
      </trkpt>
      <trkpt lat="45.62166" lon="-1.02333">
        <ele>-2.8</ele>
        <time>2020-10-14T14:15:46.383Z</time>
      </trkpt>
      <trkpt lat="45.62164" lon="-1.02324">
        <ele>-2.6</ele>
        <time>2020-10-14T14:15:53.419Z</time>
      </trkpt>
      <trkpt lat="45.62162" lon="-1.02314">
        <ele>-2.6</ele>
        <time>2020-10-14T14:16:01.153Z</time>
      </trkpt>
      <trkpt lat="45.62164" lon="-1.02305">
        <ele>-1.8</ele>
        <time>2020-10-14T14:16:08.248Z</time>
      </trkpt>
      <trkpt lat="45.62163" lon="-1.02295">
        <ele>-2</ele>
        <time>2020-10-14T14:16:16.082Z</time>
      </trkpt>
      <trkpt lat="45.62162" lon="-1.02286">
        <ele>-2.5</ele>
        <time>2020-10-14T14:16:23.583Z</time>
      </trkpt>
      <trkpt lat="45.6216" lon="-1.02276">
        <ele>-2.4</ele>
        <time>2020-10-14T14:16:31.433Z</time>
      </trkpt>
      <trkpt lat="45.62163" lon="-1.02266">
        <ele>-2.8</ele>
        <time>2020-10-14T14:16:39.161Z</time>
      </trkpt>
      <trkpt lat="45.62161" lon="-1.02257">
        <ele>-2.9</ele>
        <time>2020-10-14T14:16:46.167Z</time>
      </trkpt>
      <trkpt lat="45.62159" lon="-1.02248">
        <ele>-2.4</ele>
        <time>2020-10-14T14:16:53.399Z</time>
      </trkpt>
      <trkpt lat="45.62157" lon="-1.02239">
        <ele>-1.9</ele>
        <time>2020-10-14T14:17:00.620Z</time>
      </trkpt>
      <trkpt lat="45.62157" lon="-1.02229">
        <ele>-2.4</ele>
        <time>2020-10-14T14:17:08.270Z</time>
      </trkpt>
      <trkpt lat="45.62154" lon="-1.02221">
        <ele>-2.4</ele>
        <time>2020-10-14T14:17:15.405Z</time>
      </trkpt>
      <trkpt lat="45.6215" lon="-1.02213">
        <ele>-2.2</ele>
        <time>2020-10-14T14:17:22.307Z</time>
      </trkpt>
      <trkpt lat="45.62147" lon="-1.02205">
        <ele>-2</ele>
        <time>2020-10-14T14:17:29.450Z</time>
      </trkpt>
      <trkpt lat="45.6214" lon="-1.0218">
        <ele>-1.7</ele>
        <time>2020-10-14T14:17:49.934Z</time>
      </trkpt>
      <trkpt lat="45.62145" lon="-1.02188">
        <ele>-2.6</ele>
        <time>2020-10-14T14:17:57.732Z</time>
      </trkpt>
      <trkpt lat="45.62148" lon="-1.02179">
        <ele>-2</ele>
        <time>2020-10-14T14:18:05.024Z</time>
      </trkpt>
      <trkpt lat="45.62146" lon="-1.02171">
        <ele>-1.8</ele>
        <time>2020-10-14T14:18:12.161Z</time>
      </trkpt>
      <trkpt lat="45.62144" lon="-1.02162">
        <ele>-1.2</ele>
        <time>2020-10-14T14:18:19.510Z</time>
      </trkpt>
      <trkpt lat="45.62139" lon="-1.02155">
        <ele>-1.3</ele>
        <time>2020-10-14T14:18:26.384Z</time>
      </trkpt>
      <trkpt lat="45.62142" lon="-1.02164">
        <ele>-0.9</ele>
        <time>2020-10-14T14:18:33.646Z</time>
      </trkpt>
      <trkpt lat="45.62139" lon="-1.02172">
        <ele>-0.8</ele>
        <time>2020-10-14T14:18:40.619Z</time>
      </trkpt>
      <trkpt lat="45.6214" lon="-1.02182">
        <ele>-0.8</ele>
        <time>2020-10-14T14:18:48.502Z</time>
      </trkpt>
      <trkpt lat="45.62146" lon="-1.0219">
        <ele>-0.6</ele>
        <time>2020-10-14T14:18:57.065Z</time>
      </trkpt>
      <trkpt lat="45.62151" lon="-1.02195">
        <ele>-0.4</ele>
        <time>2020-10-14T14:19:04.058Z</time>
      </trkpt>
      <trkpt lat="45.6215" lon="-1.02206">
        <ele>2</ele>
        <time>2020-10-14T14:19:12.326Z</time>
      </trkpt>
      <trkpt lat="45.62146" lon="-1.02212">
        <ele>2</ele>
        <time>2020-10-14T14:19:19.436Z</time>
      </trkpt>
      <trkpt lat="45.62149" lon="-1.02221">
        <ele>0.5</ele>
        <time>2020-10-14T14:19:26.938Z</time>
      </trkpt>
      <trkpt lat="45.62155" lon="-1.02225">
        <ele>1</ele>
        <time>2020-10-14T14:19:34.061Z</time>
      </trkpt>
      <trkpt lat="45.62159" lon="-1.02233">
        <ele>0.4</ele>
        <time>2020-10-14T14:19:41.477Z</time>
      </trkpt>
      <trkpt lat="45.62161" lon="-1.02242">
        <ele>-0.3</ele>
        <time>2020-10-14T14:19:48.801Z</time>
      </trkpt>
      <trkpt lat="45.62161" lon="-1.02252">
        <ele>-0.6</ele>
        <time>2020-10-14T14:19:56.331Z</time>
      </trkpt>
      <trkpt lat="45.62162" lon="-1.02261">
        <ele>-1.5</ele>
        <time>2020-10-14T14:20:03.299Z</time>
      </trkpt>
      <trkpt lat="45.62162" lon="-1.02268">
        <ele>-0.4</ele>
        <time>2020-10-14T14:20:08.941Z</time>
      </trkpt>
    </trkseg>
  </trk>
</gpx>